Terug naar catalogus

STARLINK-32253

ActiefCommunicatieVLEO
NORAD 60733·PAYLOAD·🇺🇸 United States

Gelanceerd Aug 28, 2024 vanaf Cape Canaveral Space Force Station

Loading…

Volgende Passages (komende 24 uur)

TLE

VersSource: CelesTrak SupGP

Epoch: Sep 14, 2026, 22:24 UTC

1 60733C 24152P   26257.93381944 -.00002417  00000+0 -71421-4 0  2577
2 60733  53.1567 107.4315 0001219  85.2439 242.5484 15.34385702    11

Volg STARLINK-32253 in realtime met AllMySat

Download on the App Store